This is the latest recevied weather packets stored in our database for station/object SP6PGH-13. If no packets are shown the sender has not sent any weather packets the latest 10 day(s).
| Time | Temp. | Humidity | Pressure | Rain* | Wind** | Luminosity | Snow |
|---|---|---|---|---|---|---|---|
| 1787970628 | 16.67° C | 92% | 998.9 hPa | 2.79 mm | - | - | - |
| 1787969727 | 16.67° C | 92% | 999 hPa | 3.56 mm | - | - | - |
| 1787968827 | 17.22° C | 93% | 999.2 hPa | 3.56 mm | - | - | - |
| 1787967926 | 17.78° C | 93% | 999.2 hPa | 3.81 mm | - | - | - |
| 1787967025 | 17.78° C | 93% | 998.9 hPa | 2.29 mm | - | - | - |
| 1787966124 | 17.78° C | 91% | 998.6 hPa | 1.27 mm | - | - | - |
| 1787965223 | 18.89° C | 91% | 998.5 hPa | 0.25 mm | - | - | - |
| 1787964322 | 18.89° C | 93% | 998 hPa | 0.25 mm | - | - | - |
| 1787963421 | 18.89° C | 92% | 997.9 hPa | 0.76 mm | - | - | - |
| 1787962520 | 18.89° C | 92% | 997.8 hPa | 1.02 mm | - | - | - |
| 1787961623 | 19.44° C | 91% | 997.8 hPa | 1.02 mm | - | - | - |
| 1787960718 | 20° C | 87% | 998 hPa | 0.51 mm | - | - | - |
| 1787959817 | 20.56° C | 76% | 997.5 hPa | - | - | - | - |
| 1787958916 | 20.56° C | 73% | 996.7 hPa | - | - | - | - |
| 1787958015 | 20.56° C | 73% | 996.7 hPa | - | - | - | - |
| 1787957115 | 21.11° C | 72% | 996.6 hPa | - | - | - | - |
| 1787955309 | 21.67° C | 68% | 996.7 hPa | - | - | - | - |
| 1787954417 | 21.67° C | 67% | 996.8 hPa | - | - | - | - |
| 1787953507 | 21.67° C | 66% | 997.1 hPa | - | - | - | - |
| 1787952606 | 22.22° C | 65% | 997.2 hPa | - | - | - | - |
| 1787951705 | 22.78° C | 64% | 997.3 hPa | - | - | - | - |
| 1787950804 | 22.78° C | 62% | 997.6 hPa | - | - | - | - |
| 1787949903 | 22.78° C | 62% | 997.8 hPa | - | - | - | - |
| 1787949002 | 22.78° C | 63% | 997.7 hPa | - | - | - | - |
| 1787948101 | 22.78° C | 63% | 997.7 hPa | - | - | - | - |
* Rain latest hour (hover to see other rain measurements)
** Current wind speed in m/s (hover to see current wind gust speed)